Regional Weather Roundup
Issued by NWS Charleston, SC

Current Version | Previous Version | Graphics & Text | Print | Product List | Glossary On
Versions: 1 2 3 4 5 6 7 8 9 10 11 12 13 14 15 16 17 18 19 20 21 22 23 24 25 26 27 28 29 30 31 32 33 34 35 36 37 38 39 40 41 42 43 44 45 46 47 48 49 50
000
ASUS42 KCHS 292210
RWRCHS
REGIONAL WEATHER ROUNDUP
NATIONAL WEATHER SERVICE CHARLESTON SC
600 PM EDT WED OCT 29 2014

NOTE: "FAIR" INDICATES FEW OR NO CLOUDS BELOW 12,000 FEET WITH NO
SIGNIFICANT WEATHER AND/OR OBSTRUCTIONS TO VISIBILITY.

NOT ALL STATIONS ARE QUALITY CONTROLLED BY THE NATIONAL
WEATHER SERVICE. USE DATA WITH CAUTION...ESPECIALLY
DEWPOINT OBSERVATIONS.

SCZ027-030-031-034>040-042>050-292300-
...SOUTH CAROLINA...

CITY           SKY/WX    TMP DP  RH WIND       PRES   REMARKS
N CHARLESTON   MOCLDY    77  63  61 SW12      29.97S
WATERFRONT PRK   N/A     73 N/A N/A SW7         N/A
FORT JOHNSON   NOT AVBL
JOHNS ISLAND   CLEAR     73  70  88 CALM      29.98S
PINOPOLIS      NOT AVBL
MONCKS CORNER  FAIR      75  66  73 CALM      29.95S
SUMMERVILLE    MOCLDY    75  64  69 CALM      29.97S
BEAUFORT MCAS  MOCLDY    76  67  73 VRB3      29.94S
BEAUFORT ARPT  FAIR      75  66  73 S5        29.97S
HILTON HEAD IS PTCLDY    75  66  73 S5        29.98F
GEORGETOWN     NOT AVBL
WALTERBORO     CLOUDY    75  59  57 NW8       29.98R
ORANGEBURG     PTCLDY    73  61  65 SW9       29.96S
BARNWELL       MOCLDY    72  66  83 CALM      29.97S
AIKEN          MOCLDY    73  64  73 S7        29.99S
MANNING        MOCLDY    79  63  57 SW6       29.94F
KINGSTREE      NOT AVBL
COLUMBIA       MOCLDY    78  59  51 SW10      29.93S
SUMTER         MOCLDY    79  60  52 SW10      29.91F
FLORENCE       MOCLDY    78  57  48 SW6       29.92S
MYRTLE BEACH   CLEAR     75  64  69 S14       29.95S
N MYRTLE BEACH MOCLDY    73  66  78 SW12      29.94S

$$

GAZ063-065-086>088-099>101-113>116-118-119-134-136>141-150-292300-
...GEORGIA...

CITY           SKY/WX    TMP DP  RH WIND       PRES   REMARKS
SAVANNAH ARPT  PTCLDY    81  59  47 SW5       29.97S
HUNTER AAF     PTCLDY    77  67  72 S8        29.95F
FORT STEWART   PTCLDY    81  58  45 SW6       29.95F
STATESBORO     NOT AVBL
SYLVANIA       PTCLDY    80  68  67 NW3       29.98F
CLAXTON        FAIR      79  63  57 CALM      29.97S
THOMSON        PTCLDY    75  68  77 CALM      30.00F
AUGUSTA-BUSH   PTCLDY    76  62  62 W5        29.95S
AUGUSTA-DANIEL PTCLDY    78  61  55 W6        29.96S
SWAINSBORO     FAIR      77  68  73 MISG      29.98S
VIDALIA        MOCLDY    79  59  50 CALM      29.97S
ALMA           CLEAR     81  56  42 SW5       29.97S
WAYCROSS       CLEAR     84  61  45 W5        29.97F
JESUP          FAIR      82  61  47 SW3       29.97F
BRUNSWICK      CLEAR     79  64  61 S6        29.99S
SAINT SIMONS   CLEAR     75  68  78 SE8       29.99S

$$

SCZ027-028-034-036>038-045-046-048>050-GAZ119-141-292300-
...LAKE AND SUPPLEMENTAL COASTAL OBSERVATIONS...

STATION/POSITION TIME  TEMP    WIND        PRES    WAVE   SWELL
                       AIR SEA DIR/SP/G            HT/PER HT/PER/DIR
                 (UTC) (F)     (DEG/KT/KT) (MB)    (FT/S) (FT/S/D)
UPR LAKE MARION  NOT AVBL
WINYAH BAY       2100   78     200/  9     1014.0S
LAKE MURRAY      2100   78     270/  9/ 10 1012.9S
ACE BASIN NERRS  2100   76     170/  1     1015.0S
FORT PULASKI     2200   76     160/  4/  8 1015.4R
SAPELO ISLAND    NOT AVBL

$$

ANZ835-935-AMZ111-154-330-350-352-354-374-450-454-472-292300-
...C-MAN AND BUOY OBSERVATIONS...

STATION/POSITION TIME  TEMP    WIND        PRES    WAVE   SWELL
                       AIR SEA DIR/SP/G            HT/PER HT/PER/DIR
                 (UTC) (F)     (DEG/KT/KT) (MB)    (FT/S) (FT/S/D)
FOLLY BEACH CMAN 2100   73     210/ 10/ 12 1015.6F
BUOY 41004       2200   76 77  210/ 12/ 14 1014.6F   2/ 4   2/ 9
BUOY 41008       2200   74 75  150/  8/ 10 1015.5F   1/ 7   2/120/ 7
5E ST. MARYS GA  2100      76                N/A     1/10
FRYING PAN BUOY  2200   75 74  220/ 14/ 16 1015.3F   3/ 5
BUOY 41025       2200   76     210/ 16/ 19 1013.9F   4/ 5   2/210/11
CAPE LOOKOUT NC  2100   74     200/ 10/ 12 1014.0F
BUOY 41002       2110   76 77  170/  6/  8 1017.3F   2/ 8   2/ 90/ 8
BUOY 41010       2200   78 82   10/  6/  8 1016.6R   2/ 7   2/100/ 7
BUOY 41012       NOT AVBL
ST AUGUSTINE FL  2200   77     140/ 10/ 10 1016.3F
CAPERS NEARSHORE 2100   74     220/ 12/ 14   N/A
FRIPP NEARSHORE  NOT AVBL


$$



USA.gov is the U.S. government's official web portal to all federal, state and local government web resources and services.